Flag for Canada Weather past 2 weeks in Shawinigan, Quebec, Canada

Now
63 °F

Mild.


Feels Like: 63 °F
Forecast: 63 / 84 °F
Wind: 1 mph from Northwest

Location: Shawinigan CS

Current Time: Jul 22, 2014 at 6:15:26 AM

Latest Report: Jul 22, 2014 at 5:00 AM


Visibility: N/A

Pressure: 30.03 "Hg

Humidity: 91%

Dew point: 60 °F

Location of ShawiniganLocation

Historic Weather in Shawinigan — Graph

°F

Shawinigan temperature yesterday

Maximum temperature yesterday: 81 °F (at 2:00 PM)
Minimum temperature yesterday: 61 °F (at 5:00 AM)
Average temperature yesterday: 71 °F

Past Weeks' High & Low Weather Summary

 TemperatureHumidityPressure
High82 °F (Jul 8, 3:00 PM)100% (Jul 13, 8:00 PM)30.27 "Hg (Jul 13, 8:00 PM)
Low53 °F (Jul 11, 5:00 AM)41% (Jul 11, 6:00 PM)29.34 "Hg (Jul 9, 12:00 AM)
Average67 °F76%29.94 "Hg
* Reported Jul 7 5:00 AM — Jul 22 5:00 AM, Shawinigan, Weather by CustomWeather, © 2014

Note: Actual official high and low records may vary slightly from our data, if they occured in-between our weather recording intervals... More about our weather records

Advertising

Shawinigan weather history for previous 24 hours

 ConditionsComfort  
Time TempWeatherWind HumidityBarometerVisibility
5:00 AM
Jul 22
63 °FMild.1 mph91%30.03 "HgN/A
4:00 AM64 °FMild.1 mph96%30.04 "HgN/A
3:00 AM65 °FMild.1 mph96%30.04 "HgN/A
2:00 AM65 °FMild.1 mph96%30.06 "HgN/A
1:00 AM66 °FMild.No wind96%30.06 "HgN/A
12:00 AM67 °FMild.1 mph89%30.06 "HgN/A
11:00 PM
Jul 21
71 °FMild.3 mph84%30.06 "HgN/A
10:00 PM73 °FMild.2 mph72%30.06 "HgN/A
9:00 PM73 °FMild.2 mph76%30.06 "HgN/A
8:00 PM76 °FMild.3 mph69%30.05 "HgN/A
7:00 PM78 °FWarm.5 mph61%30.06 "HgN/A
6:00 PM81 °FWarm.6 mph57%30.06 "HgN/A
5:00 PM80 °FWarm.7 mph58%30.07 "HgN/A
4:00 PM78 °FWarm.9 mph54%30.09 "HgN/A
3:00 PM79 °FWarm.7 mph54%30.09 "HgN/A
2:00 PM81 °FWarm.6 mph51%30.10 "HgN/A
1:00 PM79 °FWarm.6 mph52%30.12 "HgN/A
12:00 PM75 °FMild.3 mph66%30.14 "HgN/A
11:00 AM72 °FMild.2 mph66%30.15 "HgN/A
10:00 AM67 °FMild.2 mph80%30.14 "HgN/A
9:00 AM65 °FMild.3 mph85%30.16 "HgN/A
8:00 AM64 °FMild.2 mph87%30.16 "HgN/A
7:00 AM62 °FCool.2 mph88%30.14 "HgN/A
6:00 AM61 °FCool.2 mph92%30.13 "HgN/A
Weather by CustomWeather, © 2014

See weather overviewHow to use our weather pages